Weather History for Hettinger, ND

Change the Weather History Date:

Thursday, December 13, 2012

  Actual Average Record
Temperature  
Mean Temperature 25 °F -  
Max Temperature 30 °F 30 °F 60 °F (2014)
Min Temperature 20 °F 7 °F -15 °F (2000)
Degree Days  
Heating Degree Days 40 47  
Month to date heating degree days 488 584  
Since 1 July heating degree days 2466 2714  
Moisture  
Dew Point 23 °F    
Average Humidity 92    
Maximum Humidity 100    
Minimum Humidity 88    
Precipitation  
Precipitation 0.00 in 0.01 in 0.02 in (2008)
Month to date precipitation 0.04 0.09  
Year to date precipitation 14.62 15.88  
Sea Level Pressure  
Sea Level Pressure 29.93 in    
Wind  
Wind Speed 6 mph (South)    
Max Wind Speed 14 mph    
Max Gust Speed 16 mph    
Visibility 2 miles    
Events Fog    
T = Trace of Precipitation, MM = Missing Value Source: NWS Daily Summary

Daily Weather History Graph

Daily Weather History Graph

Search for Another Location

Airport:

Trip Planner

Search our weather history database for the weather conditions in past years. The results will help you decide how hot, cold, wet, or windy it might be!

Date:

Astronomy

Dec. 13, 2012 Rise Set
Actual Time 7:24 AM MST 4:05 PM MST
Civil Twilight 6:50 AM MST 4:40 PM MST
Nautical Twilight 6:12 AM MST 5:18 PM MST
Astronomical Twilight 5:35 AM MST 5:54 PM MST
Moon 7:34 AM MST (12/13) 4:51 PM MST (12/13)
Length of Visible Light 9h 49m
Length of Day
8h 40m
New Moon, 0% of the Moon is Illuminated
Dec 13
New Moon
Dec 19
First Quarter
Dec 28
Full
Jan 4
Last Quarter
Jan 11
New

Hourly Weather History & Observations

Time (MST) Temp. Windchill Dew Point Humidity Pressure Visibility Wind Dir Wind Speed Gust Speed Precip Events Conditions
12:03 AM 24.8 °F - 21.2 °F 86% 29.84 in 6.0 mi Calm Calm - N/A   Overcast
12:29 AM 23.0 °F - 19.4 °F 86% 29.85 in 5.0 mi Calm Calm - N/A   Overcast
12:53 AM 24.1 °F - 21.0 °F 88% 29.94 in 5.0 mi Calm Calm - N/A   Overcast
1:16 AM 24.8 °F - 21.2 °F 86% 29.86 in 6.0 mi Calm Calm - N/A   Overcast
1:23 AM 24.8 °F - 21.2 °F 86% 29.87 in 6.0 mi Calm Calm - N/A   Overcast
1:37 AM 24.8 °F - 21.2 °F 86% 29.88 in 6.0 mi Calm Calm - N/A   Overcast
1:53 AM 24.1 °F 19.7 °F 21.0 °F 88% 29.96 in 6.0 mi ENE 3.5 mph - N/A   Overcast
2:53 AM 24.1 °F - 21.0 °F 88% 30.00 in 6.0 mi Calm Calm - N/A   Overcast
3:46 AM 24.8 °F - 21.2 °F 86% 29.92 in 5.0 mi Calm Calm - N/A   Overcast
3:53 AM 24.1 °F - 21.9 °F 91% 30.01 in 5.0 mi Calm Calm - N/A   Overcast
4:04 AM 24.8 °F 19.1 °F 23.0 °F 93% 29.92 in 1.8 mi SW 4.6 mph - N/A   Overcast
4:16 AM 24.8 °F 19.1 °F 23.0 °F 93% 29.92 in 0.8 mi SW 4.6 mph - N/A   Mist
4:24 AM 24.8 °F 17.9 °F 23.0 °F 93% 29.92 in 1.0 mi SSW 5.8 mph - N/A   Mist
4:34 AM 24.8 °F 16.9 °F 23.0 °F 93% 29.92 in 0.8 mi SSW 6.9 mph - N/A   Mist
4:44 AM 24.8 °F 16.9 °F 23.0 °F 93% 29.92 in 1.0 mi South 6.9 mph - N/A   Mist
4:53 AM 25.0 °F 18.1 °F 23.0 °F 92% 30.01 in 0.8 mi SSW 5.8 mph - N/A   Mist
5:37 AM 24.8 °F 20.5 °F 23.0 °F 93% 29.91 in 0.2 mi SSW 3.5 mph - N/A Fog Light Freezing Fog
5:53 AM 25.0 °F 19.3 °F 23.0 °F 92% 30.01 in 0.2 mi SW 4.6 mph - N/A Fog Light Freezing Fog
6:13 AM 24.8 °F 20.5 °F 23.0 °F 93% 29.93 in 0.5 mi South 3.5 mph - N/A Fog Light Freezing Fog
6:28 AM 24.8 °F 20.5 °F 23.0 °F 93% 29.93 in 0.2 mi South 3.5 mph - N/A Fog Light Freezing Fog
6:53 AM 25.0 °F 18.1 °F 23.0 °F 92% 30.03 in 0.2 mi SSE 5.8 mph - N/A Fog Light Freezing Fog
7:24 AM 24.8 °F 15.3 °F 23.0 °F 93% 29.95 in 0.5 mi South 9.2 mph - N/A Fog Light Freezing Fog
7:46 AM 24.8 °F 17.9 °F 21.2 °F 86% 29.95 in 0.2 mi SSE 5.8 mph - N/A Fog Light Freezing Fog
7:53 AM 24.1 °F 16.0 °F 21.9 °F 91% 30.06 in 0.2 mi South 6.9 mph - N/A Fog Light Freezing Fog
8:16 AM 24.8 °F 15.3 °F 21.2 °F 86% 29.96 in 0.5 mi South 9.2 mph - N/A Fog Light Freezing Fog
8:27 AM 24.8 °F 16.9 °F 21.2 °F 86% 29.96 in 0.2 mi SSE 6.9 mph - N/A Fog Light Freezing Fog
8:53 AM 24.1 °F 13.7 °F 21.9 °F 91% 30.06 in 0.2 mi South 10.4 mph - N/A Fog Light Freezing Fog
9:13 AM 24.8 °F 15.3 °F 21.2 °F 86% 29.97 in 0.5 mi South 9.2 mph - N/A Fog Light Freezing Fog
9:53 AM 26.1 °F 17.6 °F 24.1 °F 92% 30.06 in 1.2 mi South 8.1 mph - N/A   Overcast
10:17 AM 26.6 °F 18.2 °F 24.8 °F 93% 29.97 in 3.0 mi SSW 8.1 mph - N/A   Overcast
10:53 AM 26.1 °F 16.2 °F 25.0 °F 96% 30.06 in 4.0 mi SSW 10.4 mph - N/A   Overcast
11:53 AM 27.0 °F 19.5 °F 25.0 °F 92% 30.04 in 3.0 mi SW 6.9 mph - N/A   Overcast
12:06 PM 26.6 °F 19.1 °F 26.6 °F 100% 29.93 in 2.5 mi South 6.9 mph - N/A   Overcast
12:30 PM 28.4 °F 20.4 °F 26.6 °F 93% 29.92 in 4.0 mi SSW 8.1 mph - N/A   Overcast
12:53 PM 28.0 °F 20.0 °F 26.1 °F 92% 30.01 in 1.8 mi SSW 8.1 mph - N/A   Overcast
1:06 PM 28.4 °F 22.2 °F 26.6 °F 93% 29.91 in 0.5 mi WSW 5.8 mph - N/A Fog Light Freezing Fog
1:42 PM 28.4 °F 23.3 °F 26.6 °F 93% 29.90 in 1.8 mi SSW 4.6 mph - N/A   Overcast
1:53 PM 28.9 °F 23.9 °F 27.0 °F 92% 29.99 in 1.5 mi SSW 4.6 mph - N/A   Overcast
2:02 PM 28.4 °F - 26.6 °F 93% 29.90 in 0.5 mi Calm Calm - N/A Fog Light Freezing Fog
2:32 PM 28.4 °F 22.2 °F 26.6 °F 93% 29.89 in 1.0 mi South 5.8 mph - N/A   Mist
2:50 PM 30.2 °F 23.4 °F 28.4 °F 93% 29.89 in 3.0 mi South 6.9 mph - N/A   Overcast
2:51 PM 30.0 °F 24.1 °F 28.0 °F 92% 29.99 in 3.0 mi South 5.8 mph - N/A   Overcast
3:06 PM 30.2 °F 21.9 °F 28.4 °F 93% 29.89 in 1.5 mi South 9.2 mph - N/A   Overcast
3:45 PM 30.2 °F 21.9 °F 28.4 °F 93% 29.89 in 0.2 mi South 9.2 mph - N/A Fog Light Freezing Fog
4:45 PM 28.4 °F 18.0 °F 26.6 °F 93% 29.88 in 0.2 mi SSE 12.7 mph - N/A Fog Light Freezing Fog
5:10 PM 26.6 °F 18.2 °F 26.6 °F 100% 29.89 in 0.2 mi SSE 8.1 mph - N/A Fog Light Freezing Fog
6:44 PM 24.8 °F 17.9 °F 23.0 °F 93% 29.87 in 0.5 mi SSE 5.8 mph - N/A Fog Light Freezing Fog
6:53 PM 24.1 °F 15.2 °F 21.9 °F 91% 29.97 in 0.5 mi SSE 8.1 mph - N/A Fog Light Freezing Fog
7:21 PM 23.0 °F 17.0 °F 21.2 °F 93% 29.86 in 0.2 mi SSE 4.6 mph - N/A Fog Light Freezing Fog
7:53 PM 23.0 °F 15.8 °F 21.0 °F 92% 29.97 in 0.2 mi SSE 5.8 mph - N/A Fog Light Freezing Fog
8:49 PM 21.2 °F 13.6 °F 21.2 °F 100% 29.86 in 0.5 mi SSE 5.8 mph - N/A Fog Light Freezing Fog
8:53 PM 21.9 °F 12.5 °F 21.0 °F 96% 29.97 in 0.5 mi SSE 8.1 mph - N/A Fog Light Freezing Fog
9:11 PM 21.2 °F 12.6 °F 19.4 °F 93% 29.85 in 0.2 mi SSE 6.9 mph - N/A Fog Light Freezing Fog
9:53 PM 21.0 °F 16.2 °F 19.9 °F 96% 29.95 in 0.2 mi South 3.5 mph - N/A Fog Light Freezing Fog
10:05 PM 21.2 °F 11.7 °F 19.4 °F 93% 29.85 in 0.5 mi SSE 8.1 mph - N/A Fog Light Freezing Fog
10:35 PM 21.2 °F 11.7 °F 19.4 °F 93% 29.84 in 0.2 mi SSE 8.1 mph - N/A Fog Light Freezing Fog
10:51 PM 19.4 °F 10.4 °F 19.4 °F 100% 29.84 in 0.5 mi SSE 6.9 mph - N/A Fog Light Freezing Fog
10:53 PM 19.9 °F 10.1 °F 19.0 °F 96% 29.95 in 0.5 mi SSE 8.1 mph - N/A Fog Light Freezing Fog
11:05 PM 21.2 °F 11.7 °F 19.4 °F 93% 29.84 in 0.2 mi SSE 8.1 mph - N/A Fog Light Freezing Fog
11:16 PM 19.4 °F 8.6 °F 19.4 °F 100% 29.84 in 0.5 mi South 9.2 mph - N/A Fog Light Freezing Fog
11:32 PM 19.4 °F 10.4 °F 17.6 °F 93% 29.83 in 0.2 mi South 6.9 mph - N/A Fog Light Freezing Fog
11:53 PM 19.9 °F 10.1 °F 18.0 °F 92% 29.94 in 0.5 mi South 8.1 mph - N/A Fog Light Freezing Fog